Time,TemperatureF,DewpointF,PressureIn,WindDirection,WindDirectionDegrees,WindSpeedMPH,WindSpeedGustMPH,Humidity,HourlyPrecipIn,Conditions,Clouds,dailyrainin,SoftwareType,DateUTC
2013-09-02 00:14:00,68.0,63.0,29.86,SW,225,0.0,0.0,83,0.00,,,0.00,,2013-09-02 04:14:00,
2013-09-02 00:54:00,68.0,63.0,29.85,SW,225,0.0,0.0,83,0.00,,,0.00,,2013-09-02 04:54:00,
2013-09-02 01:13:00,67.0,62.0,29.85,SW,225,0.0,0.0,84,0.00,,,0.00,,2013-09-02 05:13:00,
2013-09-02 01:23:00,67.0,62.0,29.85,SW,225,0.0,0.0,84,0.00,,,0.00,,2013-09-02 05:23:00,
2013-09-02 01:52:00,67.0,62.0,29.84,SW,225,0.0,0.0,84,0.00,,,0.00,,2013-09-02 05:52:00,
2013-09-02 02:12:00,67.0,62.0,29.84,SW,225,0.0,0.0,84,0.00,,,0.00,,2013-09-02 06:12:00,
2013-09-02 02:22:00,67.0,62.0,29.84,SW,225,0.0,0.0,84,0.00,,,0.00,,2013-09-02 06:22:00,
2013-09-02 02:43:00,66.0,61.0,29.84,SW,225,0.0,0.0,85,0.00,,,0.00,,2013-09-02 06:43:00,
2013-09-02 02:52:00,66.0,61.0,29.84,SW,225,0.0,0.0,85,0.00,,,0.00,,2013-09-02 06:52:00,
2013-09-02 03:01:00,66.0,61.0,29.84,SW,225,0.0,0.0,85,0.00,,,0.00,,2013-09-02 07:01:00,
2013-09-02 03:11:00,66.0,61.0,29.84,SW,225,0.0,0.0,85,0.00,,,0.00,,2013-09-02 07:11:00,
2013-09-02 03:21:00,66.0,62.0,29.84,SW,225,0.0,0.0,86,0.00,,,0.00,,2013-09-02 07:21:00,
2013-09-02 03:52:00,66.0,62.0,29.84,SW,225,0.0,0.0,87,0.00,,,0.00,,2013-09-02 07:52:00,
2013-09-02 04:11:00,66.0,62.0,29.84,SW,225,0.0,0.0,87,0.00,,,0.00,,2013-09-02 08:11:00,
2013-09-02 04:22:00,66.0,62.0,29.84,SW,225,0.0,0.0,87,0.00,,,0.00,,2013-09-02 08:22:00,
2013-09-02 04:52:00,66.0,62.0,29.84,SW,225,0.0,0.0,87,0.00,,,0.00,,2013-09-02 08:52:00,
2013-09-02 05:22:00,67.0,63.0,29.84,SW,225,0.0,0.0,88,0.00,,,0.00,,2013-09-02 09:22:00,
2013-09-02 05:53:00,67.0,63.0,29.84,SW,225,0.0,0.0,88,0.00,,,0.00,,2013-09-02 09:53:00,
2013-09-02 06:23:00,67.0,63.0,29.83,SW,225,0.0,0.0,88,0.00,,,0.00,,2013-09-02 10:23:00,
2013-09-02 06:42:00,67.0,63.0,29.83,SW,225,0.0,0.0,88,0.00,,,0.00,,2013-09-02 10:42:00,
2013-09-02 06:53:00,67.0,63.0,29.83,SW,225,0.0,0.0,88,0.00,,,0.00,,2013-09-02 10:53:00,
2013-09-02 07:11:00,67.0,63.0,29.85,SW,225,0.0,0.0,88,0.00,,,0.00,,2013-09-02 11:11:00,
2013-09-02 07:22:00,67.0,63.0,29.84,SW,225,0.0,0.0,88,0.00,,,0.00,,2013-09-02 11:22:00,
2013-09-02 07:52:00,67.0,63.0,29.85,SW,225,0.0,0.0,88,0.00,,,0.00,,2013-09-02 11:52:00,
2013-09-02 08:12:00,67.0,63.0,29.85,SW,225,0.0,0.0,88,0.00,,,0.00,,2013-09-02 12:12:00,
2013-09-02 08:21:00,68.0,65.0,29.86,SW,225,0.0,0.0,89,0.00,,,0.00,,2013-09-02 12:21:00,
2013-09-02 08:52:00,68.0,65.0,29.85,SW,225,0.0,1.0,89,0.00,,,0.00,,2013-09-02 12:52:00,
2013-09-02 09:11:00,69.0,66.0,29.85,SW,225,0.0,0.0,89,0.00,,,0.00,,2013-09-02 13:11:00,
2013-09-02 09:22:00,69.0,66.0,29.86,SW,225,0.0,1.0,89,0.00,,,0.00,,2013-09-02 13:22:00,
2013-09-02 09:52:00,70.0,67.0,29.85,SW,225,0.0,0.0,89,0.00,,,0.00,,2013-09-02 13:52:00,
2013-09-02 10:11:00,70.0,67.0,29.86,SSW,202,3.0,9.0,89,0.00,,,0.00,,2013-09-02 14:11:00,
2013-09-02 10:22:00,70.0,67.0,29.86,SSW,202,1.0,3.0,89,0.00,,,0.00,,2013-09-02 14:22:00,
2013-09-02 10:52:00,71.0,67.0,29.87,SSW,202,0.0,1.0,88,0.00,,,0.00,,2013-09-02 14:52:00,
2013-09-02 11:12:00,71.0,67.0,29.87,SW,225,1.0,5.0,88,0.00,,,0.00,,2013-09-02 15:12:00,
2013-09-02 11:23:00,71.0,67.0,29.87,SW,225,1.0,5.0,88,0.00,,,0.00,,2013-09-02 15:23:00,
2013-09-02 11:34:00,71.0,67.0,29.87,SW,225,1.0,5.0,88,0.00,,,0.00,,2013-09-02 15:34:00,
2013-09-02 11:54:00,73.0,68.0,29.87,SW,225,1.0,5.0,85,0.00,,,0.00,,2013-09-02 15:54:00,
2013-09-02 12:14:00,73.0,68.0,29.87,SW,225,2.0,6.0,84,0.00,,,0.00,,2013-09-02 16:14:00,
2013-09-02 12:24:00,73.0,68.0,29.87,SW,225,2.0,6.0,84,0.00,,,0.00,,2013-09-02 16:24:00,
2013-09-02 12:53:00,75.0,69.0,29.87,SSW,202,0.0,5.0,82,0.00,,,0.00,,2013-09-02 16:53:00,
2013-09-02 13:03:00,75.0,69.0,29.87,SSW,202,0.0,5.0,82,0.00,,,0.00,,2013-09-02 17:03:00,
2013-09-02 13:13:00,75.0,69.0,29.87,SSW,202,0.0,5.0,82,0.00,,,0.00,,2013-09-02 17:13:00,
2013-09-02 13:23:00,77.0,70.0,29.86,SSW,202,0.0,9.0,79,0.00,,,0.00,,2013-09-02 17:23:00,
2013-09-02 13:52:00,78.0,70.0,29.85,SSW,202,0.0,2.0,77,0.00,,,0.00,,2013-09-02 17:52:00,
2013-09-02 14:02:00,78.0,70.0,29.85,SSW,202,0.0,2.0,77,0.00,,,0.00,,2013-09-02 18:02:00,
2013-09-02 14:13:00,78.0,70.0,29.85,SSW,202,0.0,2.0,77,0.00,,,0.00,,2013-09-02 18:13:00,
2013-09-02 14:22:00,79.0,70.0,29.85,SSW,202,1.0,3.0,74,0.00,,,0.00,,2013-09-02 18:22:00,
2013-09-02 14:52:00,80.0,70.0,29.85,South,173,3.0,10.0,72,0.00,,,0.00,,2013-09-02 18:52:00,
2013-09-02 15:12:00,79.0,69.0,29.83,South,180,1.0,10.0,72,0.00,,,0.00,,2013-09-02 19:12:00,
2013-09-02 15:22:00,80.0,70.0,29.83,SSW,202,0.0,10.0,71,0.00,,,0.00,,2013-09-02 19:22:00,
2013-09-02 15:52:00,80.0,69.0,29.82,SSW,207,1.0,10.0,69,0.00,,,0.00,,2013-09-02 19:52:00,
2013-09-02 16:12:00,80.0,69.0,29.82,SSW,204,3.0,9.0,70,0.00,,,0.00,,2013-09-02 20:12:00,
2013-09-02 16:22:00,80.0,69.0,29.82,SSW,201,1.0,7.0,70,0.00,,,0.00,,2013-09-02 20:22:00,
2013-09-02 16:50:00,79.0,68.0,29.81,SSW,208,3.0,10.0,70,0.00,,,0.00,,2013-09-02 20:50:00,
2013-09-02 16:52:00,80.0,69.0,29.82,SSW,212,1.0,8.0,70,0.00,,,0.00,,2013-09-02 20:52:00,
2013-09-02 17:12:00,79.0,68.0,29.81,SSW,208,3.0,10.0,70,0.00,,,0.00,,2013-09-02 21:12:00,
2013-09-02 17:23:00,79.0,68.0,29.81,SSW,208,3.0,10.0,70,0.00,,,0.00,,2013-09-02 21:23:00,
2013-09-02 17:34:00,79.0,68.0,29.81,SSW,208,3.0,10.0,70,0.00,,,0.00,,2013-09-02 21:34:00,
2013-09-02 18:13:00,78.0,67.0,29.81,SW,218,2.0,10.0,70,0.00,,,0.00,,2013-09-02 22:13:00,
2013-09-02 18:24:00,77.0,66.0,29.82,South,185,0.0,3.0,70,0.00,,,0.00,,2013-09-02 22:24:00,
2013-09-02 18:33:00,77.0,66.0,29.82,South,185,0.0,3.0,70,0.00,,,0.00,,2013-09-02 22:33:00,
2013-09-02 18:54:00,76.0,66.0,29.81,SSW,208,0.0,7.0,71,0.00,,,0.00,,2013-09-02 22:54:00,
2013-09-02 19:03:00,76.0,66.0,29.81,SSW,208,0.0,7.0,71,0.00,,,0.00,,2013-09-02 23:03:00,
2013-09-02 19:12:00,76.0,66.0,29.81,SSW,208,0.0,7.0,71,0.00,,,0.00,,2013-09-02 23:12:00,
2013-09-02 19:22:00,75.0,66.0,29.80,SSW,202,0.0,0.0,73,0.00,,,0.00,,2013-09-02 23:22:00,
2013-09-02 19:53:00,74.0,66.0,29.81,SSW,202,0.0,0.0,75,0.00,,,0.00,,2013-09-02 23:53:00,
2013-09-02 20:12:00,74.0,66.0,29.81,SSW,202,0.0,0.0,76,0.00,,,0.00,,2013-09-03 00:12:00,
2013-09-02 20:22:00,73.0,65.0,29.81,SSW,202,0.0,0.0,77,0.00,,,0.00,,2013-09-03 00:22:00,
2013-09-02 20:42:00,73.0,65.0,29.82,SSW,202,0.0,0.0,77,0.00,,,0.00,,2013-09-03 00:42:00,
2013-09-02 20:52:00,73.0,66.0,29.82,SSW,202,0.0,0.0,78,0.00,,,0.00,,2013-09-03 00:52:00,
2013-09-02 21:11:00,72.0,64.0,29.80,SW,214,2.0,7.0,76,0.02,,,0.02,,2013-09-03 01:11:00,
2013-09-02 21:21:00,70.0,62.0,29.85,SSW,202,1.0,6.0,77,0.02,,,0.02,,2013-09-03 01:21:00,
2013-09-02 21:42:00,69.0,62.0,29.84,SW,225,0.0,0.0,79,0.02,,,0.02,,2013-09-03 01:42:00,
2013-09-02 21:52:00,68.0,62.0,29.84,SW,225,0.0,0.0,80,0.02,,,0.02,,2013-09-03 01:52:00,
2013-09-02 22:12:00,68.0,62.0,29.85,SW,225,0.0,0.0,81,0.02,,,0.02,,2013-09-03 02:12:00,
2013-09-02 22:21:00,67.0,61.0,29.85,SW,225,0.0,0.0,81,0.00,,,0.02,,2013-09-03 02:21:00,
2013-09-02 22:33:00,67.0,61.0,29.85,SW,225,0.0,0.0,81,0.00,,,0.02,,2013-09-03 02:33:00,
2013-09-02 22:42:00,67.0,61.0,29.85,SW,225,0.0,0.0,81,0.00,,,0.02,,2013-09-03 02:42:00,
2013-09-02 22:52:00,66.0,60.0,29.86,SW,225,0.0,0.0,82,0.00,,,0.02,,2013-09-03 02:52:00,
2013-09-02 23:23:00,66.0,61.0,29.87,SW,225,0.0,0.0,83,0.00,,,0.02,,2013-09-03 03:23:00,
2013-09-02 23:55:00,65.0,60.0,29.88,SW,225,0.0,0.0,84,0.00,,,0.02,,2013-09-03 03:55:00,